owner,sensor,date,latitude,longitude,vertical_datum,direction_of_sea_water_velocity,sea_water_speed,upward_sea_water_velocity,qcFlag 
TABS,ioos:station:wmo:42048:1,1997-12-01T00:22:00Z,27.9396,-96.8429,2.0,240.441465,10.27757267,-99999.0,'11111222,11111222,99999999' 
TABS,ioos:station:wmo:42048:1,1997-12-01T00:50:00Z,27.9396,-96.8429,2.0,256.8412779,9.181051138,-99999.0,'11133222,11111222,99999999' 
TABS,ioos:station:wmo:42048:1,1997-12-01T01:20:00Z,27.9396,-96.8429,2.0,268.1984228,9.544715816,-99999.0,'11133222,11111222,99999999' 
TABS,ioos:station:wmo:42048:1,1997-12-01T01:50:00Z,27.9396,-96.8429,2.0,278.6195022,9.94228344,-99999.0,'11133222,11111222,99999999' 
TABS,ioos:station:wmo:42048:1,1997-12-01T02:20:00Z,27.9396,-96.8429,2.0,299.3295835,10.94263222,-99999.0,'11111222,11111222,99999999' 
TABS,ioos:station:wmo:42048:1,1997-12-01T02:50:00Z,27.9396,-96.8429,2.0,312.2856135,13.28730597,-99999.0,'11111222,11111222,99999999' 
TABS,ioos:station:wmo:42048:1,1997-12-01T03:20:00Z,27.9396,-96.8429,2.0,324.8239012,16.03900558,-99999.0,'11111222,11111222,99999999' 
TABS,ioos:station:wmo:42048:1,1997-12-01T03:50:00Z,27.9396,-96.8429,2.0,332.0399335,16.52944343,-99999.0,'11111222,11111222,99999999' 
TABS,ioos:station:wmo:42048:1,1997-12-01T04:20:00Z,27.9396,-96.8429,2.0,334.808223,16.79769329,-99999.0,'11111222,11111222,99999999' 
TABS,ioos:station:wmo:42048:1,1997-12-01T04:50:00Z,27.9396,-96.8429,2.0,342.2486043,15.64490013,-99999.0,'11111222,11111222,99999999' 
TABS,ioos:station:wmo:42048:1,1997-12-01T05:20:00Z,27.9396,-96.8429,2.0,343.8258014,19.24162155,-99999.0,'11111222,11111222,99999999' 
TABS,ioos:station:wmo:42048:1,1997-12-01T05:50:00Z,27.9396,-96.8429,2.0,353.3002345,20.39931371,-99999.0,'11111222,11111222,99999999' 
TABS,ioos:station:wmo:42048:1,1997-12-01T06:20:00Z,27.9396,-96.8429,2.0,0.000210459,20.86,-99999.0,'11111222,11111222,99999999' 
TABS,ioos:station:wmo:42048:1,1997-12-01T06:50:00Z,27.9396,-96.8429,2.0,3.971959035,21.51166428,-99999.0,'11111222,11111222,99999999' 
TABS,ioos:station:wmo:42048:1,1997-12-01T07:20:00Z,27.9396,-96.8429,2.0,9.682862708,24.79319463,-99999.0,'11111222,11111222,99999999' 
TABS,ioos:station:wmo:42048:1,1997-12-01T07:50:00Z,27.9396,-96.8429,2.0,11.04387889,24.90113451,-99999.0,'11111222,11111222,99999999' 
TABS,ioos:station:wmo:42048:1,1997-12-01T08:20:00Z,27.9396,-96.8429,2.0,9.921768836,24.2019524,-99999.0,'11111222,11111222,99999999' 
TABS,ioos:station:wmo:42048:1,1997-12-01T08:50:00Z,27.9396,-96.8429,2.0,7.215062104,23.7278739,-99999.0,'11111222,11111222,99999999' 
TABS,ioos:station:wmo:42048:1,1997-12-01T09:20:00Z,27.9396,-96.8429,2.0,13.86875972,24.86485874,-99999.0,'11111222,11111222,99999999' 
TABS,ioos:station:wmo:42048:1,1997-12-01T09:50:00Z,27.9396,-96.8429,2.0,14.74249367,23.42101834,-99999.0,'11111222,11111222,99999999' 
TABS,ioos:station:wmo:42048:1,1997-12-01T10:20:00Z,27.9396,-96.8429,2.0,19.61225831,23.08949978,-99999.0,'11111222,11111222,99999999' 
TABS,ioos:station:wmo:42048:1,1997-12-01T10:50:00Z,27.9396,-96.8429,2.0,23.29534489,23.36469987,-99999.0,'11111222,11111222,99999999' 
TABS,ioos:station:wmo:42048:1,1997-12-01T11:20:00Z,27.9396,-96.8429,2.0,23.8102757,22.14477817,-99999.0,'11111222,11111222,99999999' 
TABS,ioos:station:wmo:42048:1,1997-12-01T11:50:00Z,27.9396,-96.8429,2.0,23.39582831,21.75891771,-99999.0,'11111222,11111222,99999999' 
TABS,ioos:station:wmo:42048:1,1997-12-01T12:20:00Z,27.9396,-96.8429,2.0,22.07970098,22.18714042,-99999.0,'11111222,11111222,99999999' 
TABS,ioos:station:wmo:42048:1,1997-12-01T12:50:00Z,27.9396,-96.8429,2.0,21.33905634,20.47357809,-99999.0,'11111222,11111222,99999999' 
TABS,ioos:station:wmo:42048:1,1997-12-01T13:20:00Z,27.9396,-96.8429,2.0,18.91989495,22.05135143,-99999.0,'11111222,11111222,99999999' 
TABS,ioos:station:wmo:42048:1,1997-12-01T13:52:00Z,27.9396,-96.8429,2.0,13.8344069,19.94867915,-99999.0,'11111222,11111222,99999999' 
TABS,ioos:station:wmo:42048:1,1997-12-01T14:21:00Z,27.9396,-96.8429,2.0,10.96762828,20.34152895,-99999.0,'11111222,11111222,99999999' 
TABS,ioos:station:wmo:42048:1,1997-12-01T14:51:00Z,27.9396,-96.8429,2.0,17.02879525,19.32733815,-99999.0,'11111222,11111222,99999999' 
TABS,ioos:station:wmo:42048:1,1997-12-01T15:21:00Z,27.9396,-96.8429,2.0,9.620989701,17.83078237,-99999.0,'11111222,11111222,99999999' 
TABS,ioos:station:wmo:42048:1,1997-12-01T15:50:00Z,27.9396,-96.8429,2.0,0.994826606,17.28260397,-99999.0,'11111222,11111222,99999999' 
TABS,ioos:station:wmo:42048:1,1997-12-01T16:21:00Z,27.9396,-96.8429,2.0,356.9477915,16.71371293,-99999.0,'11111222,11111222,99999999' 
TABS,ioos:station:wmo:42048:1,1997-12-01T16:51:00Z,27.9396,-96.8429,2.0,0.000210459,16.39,-99999.0,'11111222,11111222,99999999' 
TABS,ioos:station:wmo:42048:1,1997-12-01T17:21:00Z,27.9396,-96.8429,2.0,356.286011,13.7388573,-99999.0,'11111222,11111222,99999999' 
TABS,ioos:station:wmo:42048:1,1997-12-01T17:51:00Z,27.9396,-96.8429,2.0,346.6807553,11.63291881,-99999.0,'11111222,11111222,99999999' 
TABS,ioos:station:wmo:42048:1,1997-12-01T18:21:00Z,27.9396,-96.8429,2.0,334.6627974,12.52485529,-99999.0,'11111222,11111222,99999999' 
TABS,ioos:station:wmo:42048:1,1997-12-01T18:50:00Z,27.9396,-96.8429,2.0,333.4177426,14.65966234,-99999.0,'11111222,11111222,99999999' 
TABS,ioos:station:wmo:42048:1,1997-12-01T19:21:00Z,27.9396,-96.8429,2.0,329.6681063,14.15806837,-99999.0,'11111222,11111222,99999999' 
TABS,ioos:station:wmo:42048:1,1997-12-01T19:52:00Z,27.9396,-96.8429,2.0,321.8632896,15.91789245,-99999.0,'11111222,11111222,99999999' 
TABS,ioos:station:wmo:42048:1,1997-12-01T20:20:00Z,27.9396,-96.8429,2.0,327.2604351,14.88465317,-99999.0,'11111222,11111222,99999999' 
TABS,ioos:station:wmo:42048:1,1997-12-01T20:51:00Z,27.9396,-96.8429,2.0,321.1586229,13.77615694,-99999.0,'11111222,11111222,99999999' 
TABS,ioos:station:wmo:42048:1,1997-12-01T21:20:00Z,27.9396,-96.8429,2.0,320.9109653,12.29122044,-99999.0,'11111222,11111222,99999999' 
TABS,ioos:station:wmo:42048:1,1997-12-01T21:51:00Z,27.9396,-96.8429,2.0,315.8614078,14.11544544,-99999.0,'11111222,11111222,99999999' 
TABS,ioos:station:wmo:42048:1,1997-12-01T22:21:00Z,27.9396,-96.8429,2.0,319.6882585,12.89125673,-99999.0,'11111222,11111222,99999999' 
TABS,ioos:station:wmo:42048:1,1997-12-01T22:51:00Z,27.9396,-96.8429,2.0,321.0710371,9.962434441,-99999.0,'11133222,11111222,99999999' 
TABS,ioos:station:wmo:42048:1,1997-12-01T23:21:00Z,27.9396,-96.8429,2.0,310.1585192,12.48255182,-99999.0,'11111222,11111222,99999999' 
TABS,ioos:station:wmo:42048:1,1997-12-01T23:51:00Z,27.9396,-96.8429,2.0,311.0630997,12.25479906,-99999.0,'11111222,11111222,99999999' 
TABS,ioos:station:wmo:42048:1,1997-12-02T00:20:00Z,27.9396,-96.8429,2.0,308.6523222,11.44753685,-99999.0,'11111222,11111222,99999999' 
TABS,ioos:station:wmo:42048:1,1997-12-02T00:50:00Z,27.9396,-96.8429,2.0,305.9250581,10.66945172,-99999.0,'11111222,11111222,99999999' 
TABS,ioos:station:wmo:42048:1,1997-12-02T01:20:00Z,27.9396,-96.8429,2.0,307.7333783,11.68332573,-99999.0,'11111222,11111222,99999999' 
TABS,ioos:station:wmo:42048:1,1997-12-02T01:50:00Z,27.9396,-96.8429,2.0,306.2708409,11.08860677,-99999.0,'11111222,11111222,99999999' 
TABS,ioos:station:wmo:42048:1,1997-12-02T02:20:00Z,27.9396,-96.8429,2.0,295.5247476,14.52789386,-99999.0,'11111222,11111222,99999999' 
TABS,ioos:station:wmo:42048:1,1997-12-02T02:50:00Z,27.9396,-96.8429,2.0,302.5543843,12.73009819,-99999.0,'11111222,11111222,99999999' 
TABS,ioos:station:wmo:42048:1,1997-12-02T03:20:00Z,27.9396,-96.8429,2.0,301.7150204,11.90816946,-99999.0,'11111222,11111222,99999999' 
TABS,ioos:station:wmo:42048:1,1997-12-02T03:50:00Z,27.9396,-96.8429,2.0,301.8145852,10.16755625,-99999.0,'11111222,11111222,99999999' 
TABS,ioos:station:wmo:42048:1,1997-12-02T04:20:00Z,27.9396,-96.8429,2.0,306.5155713,10.01619189,-99999.0,'11111222,11111222,99999999' 
TABS,ioos:station:wmo:42048:1,1997-12-02T04:50:00Z,27.9396,-96.8429,2.0,303.2288543,10.32885279,-99999.0,'11111222,11111222,99999999' 
TABS,ioos:station:wmo:42048:1,1997-12-02T05:20:00Z,27.9396,-96.8429,2.0,309.5664805,8.885837046,-99999.0,'11133222,11111222,99999999' 
TABS,ioos:station:wmo:42048:1,1997-12-02T05:50:00Z,27.9396,-96.8429,2.0,301.8145852,10.16755625,-99999.0,'11111222,11111222,99999999' 
TABS,ioos:station:wmo:42048:1,1997-12-02T06:20:00Z,27.9396,-96.8429,2.0,307.3070395,7.870228713,-99999.0,'11133222,11111222,99999999' 
TABS,ioos:station:wmo:42048:1,1997-12-02T06:50:00Z,27.9396,-96.8429,2.0,310.646851,5.495934861,-99999.0,'11133222,11111222,99999999' 
TABS,ioos:station:wmo:42048:1,1997-12-02T07:20:00Z,27.9396,-96.8429,2.0,317.2294905,5.271935129,-99999.0,'11133222,11111222,99999999' 
TABS,ioos:station:wmo:42048:1,1997-12-02T07:50:00Z,27.9396,-96.8429,2.0,324.0352896,4.052505398,-99999.0,'11133222,11111222,99999999' 
TABS,ioos:station:wmo:42048:1,1997-12-02T08:20:00Z,27.9396,-96.8429,2.0,347.3809177,2.746343023,-99999.0,'11133222,11111222,99999999' 
TABS,ioos:station:wmo:42048:1,1997-12-02T08:50:00Z,27.9396,-96.8429,2.0,21.76841177,3.208815981,-99999.0,'11133222,11111222,99999999' 
TABS,ioos:station:wmo:42048:1,1997-12-02T09:20:00Z,27.9396,-96.8429,2.0,32.04877714,2.807935184,-99999.0,'11133222,11111222,99999999' 
TABS,ioos:station:wmo:42048:1,1997-12-02T09:50:00Z,27.9396,-96.8429,2.0,50.22602042,2.328991198,-99999.0,'11133222,11111222,99999999' 
TABS,ioos:station:wmo:42048:1,1997-12-02T10:20:00Z,27.9396,-96.8429,2.0,29.65637506,2.405036382,-99999.0,'11133222,11111222,99999999' 
TABS,ioos:station:wmo:42048:1,1997-12-02T10:50:00Z,27.9396,-96.8429,2.0,53.05323006,2.978002686,-99999.0,'11133222,11111222,99999999' 
TABS,ioos:station:wmo:42048:1,1997-12-02T11:20:00Z,27.9396,-96.8429,2.0,104.9074459,4.625689138,-99999.0,'11133222,11111222,99999999' 
TABS,ioos:station:wmo:42048:1,1997-12-02T11:50:00Z,27.9396,-96.8429,2.0,105.1811532,3.398602654,-99999.0,'11133222,11111222,99999999' 
TABS,ioos:station:wmo:42048:1,1997-12-02T12:20:00Z,27.9396,-96.8429,2.0,104.748511,5.852836919,-99999.0,'11133222,11111222,99999999' 
TABS,ioos:station:wmo:42048:1,1997-12-02T12:50:00Z,27.9396,-96.8429,2.0,104.0079444,4.916197718,-99999.0,'11133222,11111222,99999999' 
TABS,ioos:station:wmo:42048:1,1997-12-02T13:20:00Z,27.9396,-96.8429,2.0,126.27042,5.544303383,-99999.0,'11133222,11111222,99999999' 
TABS,ioos:station:wmo:42048:1,1997-12-02T13:50:00Z,27.9396,-96.8429,2.0,115.0589229,4.93447059,-99999.0,'11133222,11111222,99999999' 
TABS,ioos:station:wmo:42048:1,1997-12-02T14:21:00Z,27.9396,-96.8429,2.0,98.18778287,4.212944339,-99999.0,'11133222,11111222,99999999' 
TABS,ioos:station:wmo:42048:1,1997-12-02T14:51:00Z,27.9396,-96.8429,2.0,147.0993096,6.038484909,-99999.0,'11133222,11111222,99999999' 
TABS,ioos:station:wmo:42048:1,1997-12-02T15:21:00Z,27.9396,-96.8429,2.0,164.0725797,4.336473221,-99999.0,'11133222,11111222,99999999' 
TABS,ioos:station:wmo:42048:1,1997-12-02T15:52:00Z,27.9396,-96.8429,2.0,85.20988048,3.592547842,-99999.0,'11133222,11111222,99999999' 
TABS,ioos:station:wmo:42048:1,1997-12-02T16:21:00Z,27.9396,-96.8429,2.0,149.7235254,4.145419159,-99999.0,'11133222,11111222,99999999' 
TABS,ioos:station:wmo:42048:1,1997-12-02T16:50:00Z,27.9396,-96.8429,2.0,161.6129103,3.772598574,-99999.0,'11133222,11111222,99999999' 
TABS,ioos:station:wmo:42048:1,1997-12-02T17:21:00Z,27.9396,-96.8429,2.0,161.6290447,2.823915721,-99999.0,'11133222,11111222,99999999' 
TABS,ioos:station:wmo:42048:1,1997-12-02T17:50:00Z,27.9396,-96.8429,2.0,125.4856965,2.566748916,-99999.0,'11133222,11111222,99999999' 
TABS,ioos:station:wmo:42048:1,1997-12-02T18:20:00Z,27.9396,-96.8429,2.0,168.7391913,4.557740668,-99999.0,'11133222,11111222,99999999' 
TABS,ioos:station:wmo:42048:1,1997-12-02T18:50:00Z,27.9396,-96.8429,2.0,165.8503465,2.454465319,-99999.0,'11133222,11111222,99999999' 
TABS,ioos:station:wmo:42048:1,1997-12-02T19:21:00Z,27.9396,-96.8429,2.0,215.0433107,3.639848898,-99999.0,'11133222,11111222,99999999' 
TABS,ioos:station:wmo:42048:1,1997-12-02T19:51:00Z,27.9396,-96.8429,2.0,221.9656518,4.007842312,-99999.0,'11133222,11111222,99999999' 
TABS,ioos:station:wmo:42048:1,1997-12-02T20:21:00Z,27.9396,-96.8429,2.0,215.0433107,3.639848898,-99999.0,'11133222,11111222,99999999' 
TABS,ioos:station:wmo:42048:1,1997-12-02T20:50:00Z,27.9396,-96.8429,2.0,315.0003157,0.424264069,-99999.0,'11133222,11111222,99999999' 
TABS,ioos:station:wmo:42048:1,1997-12-02T21:21:00Z,27.9396,-96.8429,2.0,185.7484395,2.995062604,-99999.0,'11133222,11111222,99999999' 
TABS,ioos:station:wmo:42048:1,1997-12-02T21:50:00Z,27.9396,-96.8429,2.0,221.9656518,4.007842312,-99999.0,'11133222,11111222,99999999' 
TABS,ioos:station:wmo:42048:1,1997-12-02T22:20:00Z,27.9396,-96.8429,2.0,205.0587124,4.93447059,-99999.0,'11133222,11111222,99999999' 
TABS,ioos:station:wmo:42048:1,1997-12-02T22:50:00Z,27.9396,-96.8429,2.0,192.9511176,3.97102002,-99999.0,'11133222,11111222,99999999' 
TABS,ioos:station:wmo:42048:1,1997-12-02T23:20:00Z,27.9396,-96.8429,2.0,200.568949,5.094801272,-99999.0,'11133222,11111222,99999999' 
TABS,ioos:station:wmo:42048:1,1997-12-02T23:50:00Z,27.9396,-96.8429,2.0,203.9423833,5.864639801,-99999.0,'11133222,11111222,99999999' 
TABS,ioos:station:wmo:42048:1,1997-12-03T00:20:00Z,27.9396,-96.8429,2.0,215.2261729,6.206552989,-99999.0,'11133222,11111222,99999999' 
TABS,ioos:station:wmo:42048:1,1997-12-03T00:50:00Z,27.9396,-96.8429,2.0,191.7712509,7.303601851,-99999.0,'11133222,11111222,99999999' 
TABS,ioos:station:wmo:42048:1,1997-12-03T01:20:00Z,27.9396,-96.8429,2.0,188.091428,6.322950261,-99999.0,'11133222,11111222,99999999' 
TABS,ioos:station:wmo:42048:1,1997-12-03T01:50:00Z,27.9396,-96.8429,2.0,185.2257047,6.587381877,-99999.0,'11133222,11111222,99999999' 
TABS,ioos:station:wmo:42048:1,1997-12-03T02:20:00Z,27.9396,-96.8429,2.0,195.5348901,5.563245456,-99999.0,'11133222,11111222,99999999' 
TABS,ioos:station:wmo:42048:1,1997-12-03T02:50:00Z,27.9396,-96.8429,2.0,174.9939687,6.876227163,-99999.0,'11133222,11111222,99999999' 
TABS,ioos:station:wmo:42048:1,1997-12-03T03:20:00Z,27.9396,-96.8429,2.0,177.6938282,7.456037822,-99999.0,'11133222,11111222,99999999' 
TABS,ioos:station:wmo:42048:1,1997-12-03T03:50:00Z,27.9396,-96.8429,2.0,165.9447254,7.370658044,-99999.0,'11133222,11111222,99999999' 
TABS,ioos:station:wmo:42048:1,1997-12-03T04:20:00Z,27.9396,-96.8429,2.0,169.11703,7.89193259,-99999.0,'11133222,11111222,99999999' 
TABS,ioos:station:wmo:42048:1,1997-12-03T04:50:00Z,27.9396,-96.8429,2.0,174.8263948,9.870207698,-99999.0,'11133222,11111222,99999999' 
TABS,ioos:station:wmo:42048:1,1997-12-03T05:20:00Z,27.9396,-96.8429,2.0,178.1986332,9.544715816,-99999.0,'11133222,11111222,99999999' 
TABS,ioos:station:wmo:42048:1,1997-12-03T05:50:00Z,27.9396,-96.8429,2.0,163.1349596,10.271772,-99999.0,'11111222,11111222,99999999' 
TABS,ioos:station:wmo:42048:1,1997-12-03T06:20:00Z,27.9396,-96.8429,2.0,169.9789273,10.28693346,-99999.0,'11111222,11111222,99999999' 
TABS,ioos:station:wmo:42048:1,1997-12-03T06:50:00Z,27.9396,-96.8429,2.0,170.5374895,9.06331617,-99999.0,'11133222,11111222,99999999' 
TABS,ioos:station:wmo:42048:1,1997-12-03T07:20:00Z,27.9396,-96.8429,2.0,172.2248906,13.23163633,-99999.0,'11111222,11111222,99999999' 
TABS,ioos:station:wmo:42048:1,1997-12-03T07:50:00Z,27.9396,-96.8429,2.0,168.978706,12.44961044,-99999.0,'11111222,11111222,99999999' 
TABS,ioos:station:wmo:42048:1,1997-12-03T08:20:00Z,27.9396,-96.8429,2.0,163.6712295,12.73360907,-99999.0,'11111222,11111222,99999999' 
TABS,ioos:station:wmo:42048:1,1997-12-03T08:50:00Z,27.9396,-96.8429,2.0,164.8566451,14.81441528,-99999.0,'11111222,11111222,99999999' 
TABS,ioos:station:wmo:42048:1,1997-12-03T09:20:00Z,27.9396,-96.8429,2.0,179.9997895,16.09,-99999.0,'11111222,11111222,99999999' 
TABS,ioos:station:wmo:42048:1,1997-12-03T09:50:00Z,27.9396,-96.8429,2.0,175.2427908,14.34942856,-99999.0,'11111222,11111222,99999999' 
TABS,ioos:station:wmo:42048:1,1997-12-03T10:20:00Z,27.9396,-96.8429,2.0,162.2481834,15.64490013,-99999.0,'11111222,11111222,99999999' 
TABS,ioos:station:wmo:42048:1,1997-12-03T10:50:00Z,27.9396,-96.8429,2.0,173.3967063,20.69729451,-99999.0,'11111222,11111222,99999999' 
TABS,ioos:station:wmo:42048:1,1997-12-03T11:20:00Z,27.9396,-96.8429,2.0,177.1058292,23.5700594,-99999.0,'11111222,11111222,99999999' 
TABS,ioos:station:wmo:42048:1,1997-12-03T11:50:00Z,27.9396,-96.8429,2.0,180.9451764,18.18247508,-99999.0,'11111222,11111222,99999999' 
TABS,ioos:station:wmo:42048:1,1997-12-03T12:20:00Z,27.9396,-96.8429,2.0,185.7167147,17.96937673,-99999.0,'11111222,11111222,99999999' 
TABS,ioos:station:wmo:42048:1,1997-12-03T12:50:00Z,27.9396,-96.8429,2.0,191.8922443,23.14682268,-99999.0,'11111222,11111222,99999999' 
TABS,ioos:station:wmo:42048:1,1997-12-03T13:20:00Z,27.9396,-96.8429,2.0,187.377988,25.54148195,-99999.0,'11111222,11111222,99999999' 
TABS,ioos:station:wmo:42048:1,1997-12-03T13:50:00Z,27.9396,-96.8429,2.0,192.6980812,31.16219665,-99999.0,'11111222,11111222,99999999' 
TABS,ioos:station:wmo:42048:1,1997-12-03T14:21:00Z,27.9396,-96.8429,2.0,194.7888395,32.67236906,-99999.0,'11111222,11111222,99999999' 
TABS,ioos:station:wmo:42048:1,1997-12-03T14:50:00Z,27.9396,-96.8429,2.0,203.2573326,36.97459804,-99999.0,'11111222,11111222,99999999' 
TABS,ioos:station:wmo:42048:1,1997-12-03T15:20:00Z,27.9396,-96.8429,2.0,209.2913732,42.02304249,-99999.0,'11111222,11111222,99999999' 
TABS,ioos:station:wmo:42048:1,1997-12-03T15:50:00Z,27.9396,-96.8429,2.0,212.3068758,41.25674975,-99999.0,'11111222,11111222,99999999' 
TABS,ioos:station:wmo:42048:1,1997-12-03T16:21:00Z,27.9396,-96.8429,2.0,212.7545216,45.7078385,-99999.0,'11111222,11111222,99999999' 
TABS,ioos:station:wmo:42048:1,1997-12-03T16:51:00Z,27.9396,-96.8429,2.0,211.8884533,47.38094343,-99999.0,'11111222,11111222,99999999' 
TABS,ioos:station:wmo:42048:1,1997-12-03T17:20:00Z,27.9396,-96.8429,2.0,216.5842478,48.99260761,-99999.0,'11111222,11111222,99999999' 
TABS,ioos:station:wmo:42048:1,1997-12-03T17:51:00Z,27.9396,-96.8429,2.0,217.1333227,50.83853853,-99999.0,'11111222,11111222,99999999' 
TABS,ioos:station:wmo:42048:1,1997-12-03T18:21:00Z,27.9396,-96.8429,2.0,217.7286716,51.62380265,-99999.0,'11111222,11111222,99999999' 
TABS,ioos:station:wmo:42048:1,1997-12-03T18:51:00Z,27.9396,-96.8429,2.0,222.0303255,52.96269631,-99999.0,'11111222,11111222,99999999' 
TABS,ioos:station:wmo:42048:1,1997-12-03T19:21:00Z,27.9396,-96.8429,2.0,224.9996843,50.99654106,-99999.0,'11111222,11111222,99999999' 
TABS,ioos:station:wmo:42048:1,1997-12-03T19:51:00Z,27.9396,-96.8429,2.0,223.9405876,45.5242408,-99999.0,'11111222,11111222,99999999' 
TABS,ioos:station:wmo:42048:1,1997-12-03T20:21:00Z,27.9396,-96.8429,2.0,228.1339451,42.41914898,-99999.0,'11111222,11111222,99999999' 
TABS,ioos:station:wmo:42048:1,1997-12-03T20:51:00Z,27.9396,-96.8429,2.0,232.429288,39.09892198,-99999.0,'11111222,11111222,99999999' 
TABS,ioos:station:wmo:42048:1,1997-12-03T21:21:00Z,27.9396,-96.8429,2.0,231.3373932,36.25573886,-99999.0,'11111222,11111222,99999999' 
TABS,ioos:station:wmo:42048:1,1997-12-03T21:50:00Z,27.9396,-96.8429,2.0,236.1722653,35.87256473,-99999.0,'11111222,11111222,99999999' 
TABS,ioos:station:wmo:42048:1,1997-12-03T22:22:00Z,27.9396,-96.8429,2.0,245.0731879,32.53020289,-99999.0,'11111222,11111222,99999999' 
TABS,ioos:station:wmo:42048:1,1997-12-03T22:51:00Z,27.9396,-96.8429,2.0,247.4165943,28.72231363,-99999.0,'11111222,11111222,99999999' 
TABS,ioos:station:wmo:42048:1,1997-12-03T23:21:00Z,27.9396,-96.8429,2.0,249.3618231,27.06696326,-99999.0,'11111222,11111222,99999999' 
TABS,ioos:station:wmo:42048:1,1997-12-03T23:52:00Z,27.9396,-96.8429,2.0,254.047626,23.86914536,-99999.0,'11111222,11111222,99999999' 
TABS,ioos:station:wmo:42048:1,1997-12-04T00:20:00Z,27.9396,-96.8429,2.0,237.6952912,23.97005841,-99999.0,'11111222,11111222,99999999' 
TABS,ioos:station:wmo:42048:1,1997-12-04T00:50:00Z,27.9396,-96.8429,2.0,239.0278172,24.32878953,-99999.0,'11111222,11111222,99999999' 
TABS,ioos:station:wmo:42048:1,1997-12-04T01:20:00Z,27.9396,-96.8429,2.0,237.9915701,22.48891505,-99999.0,'11111222,11111222,99999999' 
TABS,ioos:station:wmo:42048:1,1997-12-04T01:50:00Z,27.9396,-96.8429,2.0,239.0311828,20.85251304,-99999.0,'11111222,11111222,99999999' 
TABS,ioos:station:wmo:42048:1,1997-12-04T02:20:00Z,27.9396,-96.8429,2.0,241.0972896,19.73854098,-99999.0,'11111222,11111222,99999999' 
TABS,ioos:station:wmo:42048:1,1997-12-04T02:50:00Z,27.9396,-96.8429,2.0,235.528901,24.22323265,-99999.0,'11111222,11111222,99999999' 
TABS,ioos:station:wmo:42048:1,1997-12-04T03:20:00Z,27.9396,-96.8429,2.0,237.5228087,23.31650274,-99999.0,'11111222,11111222,99999999' 
TABS,ioos:station:wmo:42048:1,1997-12-04T03:50:00Z,27.9396,-96.8429,2.0,232.2666217,23.36665145,-99999.0,'11111222,11111222,99999999' 
TABS,ioos:station:wmo:42048:1,1997-12-04T04:20:00Z,27.9396,-96.8429,2.0,231.4473352,22.47969083,-99999.0,'11111222,11111222,99999999' 
TABS,ioos:station:wmo:42048:1,1997-12-04T04:50:00Z,27.9396,-96.8429,2.0,227.1987271,21.92938896,-99999.0,'11111222,11111222,99999999' 
TABS,ioos:station:wmo:42048:1,1997-12-04T05:20:00Z,27.9396,-96.8429,2.0,224.0046583,24.02404004,-99999.0,'11111222,11111222,99999999' 
TABS,ioos:station:wmo:42048:1,1997-12-04T05:50:00Z,27.9396,-96.8429,2.0,224.5525369,27.18201243,-99999.0,'11111222,11111222,99999999' 
TABS,ioos:station:wmo:42048:1,1997-12-04T06:20:00Z,27.9396,-96.8429,2.0,230.0334595,28.77,-99999.0,'11111222,11111222,99999999' 
TABS,ioos:station:wmo:42048:1,1997-12-04T06:50:00Z,27.9396,-96.8429,2.0,228.5703988,27.02150995,-99999.0,'11111222,11111222,99999999' 
TABS,ioos:station:wmo:42048:1,1997-12-04T07:20:00Z,27.9396,-96.8429,2.0,227.3664513,25.51296337,-99999.0,'11111222,11111222,99999999' 
TABS,ioos:station:wmo:42048:1,1997-12-04T07:50:00Z,27.9396,-96.8429,2.0,233.1207191,25.32800032,-99999.0,'11111222,11111222,99999999' 
TABS,ioos:station:wmo:42048:1,1997-12-04T08:20:00Z,27.9396,-96.8429,2.0,232.6290111,27.00303131,-99999.0,'11111222,11111222,99999999' 
TABS,ioos:station:wmo:42048:1,1997-12-04T08:51:00Z,27.9396,-96.8429,2.0,233.9200023,21.75206887,-99999.0,'11111222,11111222,99999999' 
TABS,ioos:station:wmo:42048:1,1997-12-04T09:20:00Z,27.9396,-96.8429,2.0,233.3855107,25.98825889,-99999.0,'11111222,11111222,99999999' 
TABS,ioos:station:wmo:42048:1,1997-12-04T09:51:00Z,27.9396,-96.8429,2.0,234.8613529,29.51948001,-99999.0,'11111222,11111222,99999999' 
TABS,ioos:station:wmo:42048:1,1997-12-04T10:20:00Z,27.9396,-96.8429,2.0,230.9309997,26.48149731,-99999.0,'11111222,11111222,99999999' 
TABS,ioos:station:wmo:42048:1,1997-12-04T10:50:00Z,27.9396,-96.8429,2.0,228.0969485,27.22094782,-99999.0,'11111222,11111222,99999999' 
TABS,ioos:station:wmo:42048:1,1997-12-04T11:20:00Z,27.9396,-96.8429,2.0,223.3179119,28.67138818,-99999.0,'11111222,11111222,99999999' 
TABS,ioos:station:wmo:42048:1,1997-12-04T11:50:00Z,27.9396,-96.8429,2.0,224.0848925,26.13092612,-99999.0,'11111222,11111222,99999999' 
TABS,ioos:station:wmo:42048:1,1997-12-04T12:21:00Z,27.9396,-96.8429,2.0,226.1962511,30.13639162,-99999.0,'11111222,11111222,99999999' 
TABS,ioos:station:wmo:42048:1,1997-12-04T12:51:00Z,27.9396,-96.8429,2.0,229.3958656,24.72247965,-99999.0,'11111222,11111222,99999999' 
TABS,ioos:station:wmo:42048:1,1997-12-04T13:21:00Z,27.9396,-96.8429,2.0,232.3554905,26.34440548,-99999.0,'11111222,11111222,99999999' 
TABS,ioos:station:wmo:42048:1,1997-12-04T13:51:00Z,27.9396,-96.8429,2.0,225.4685416,25.92340255,-99999.0,'11111222,11111222,99999999' 
TABS,ioos:station:wmo:42048:1,1997-12-04T14:21:00Z,27.9396,-96.8429,2.0,227.0059825,24.03515134,-99999.0,'11111222,11111222,99999999' 
TABS,ioos:station:wmo:42048:1,1997-12-04T14:51:00Z,27.9396,-96.8429,2.0,224.5149611,25.07490379,-99999.0,'11111222,11111222,99999999' 
TABS,ioos:station:wmo:42048:1,1997-12-04T15:21:00Z,27.9396,-96.8429,2.0,223.6310018,26.34724464,-99999.0,'11111222,11111222,99999999' 
TABS,ioos:station:wmo:42048:1,1997-12-04T15:50:00Z,27.9396,-96.8429,2.0,222.9933861,24.03515134,-99999.0,'11111222,11111222,99999999' 
TABS,ioos:station:wmo:42048:1,1997-12-04T16:20:00Z,27.9396,-96.8429,2.0,222.1805254,25.73447687,-99999.0,'11111222,11111222,99999999' 